Location: Newark
(45.8667°N, 9.7333°E)
Time: 18:41:07
(UTC+00:00)

Transit 4A - Pass Details

Date: 31 January 2020
Orbit: 872 x 973 km, 66.8° (Epoch: 26 February)

Event Time Altitude Azimuth Distance (km) Brightness Sun altitude
Rises 05:12:55 0° 224° (SW) 3,536 - -16.2°
Exits shadow 05:14:40 - 227° (SW) 2,887 10.1 -15.9°
Reaches altitude 10° 05:15:29 10° 229° (SW) 2,583 9.9 -15.7°
Maximum altitude 05:21:22 58° 307° (NW) 1,036 7.9 -14.7°
Drops below altitude 10° 05:27:10 10° 27° (NNE) 2,543 10.4 -13.7°
Sets 05:29:42 0° 32° (NNE) 3,478 11.2 -13.3°
